Location: Goettingen
(51.5300°N, 9.9433°E)
Time: 10:26:40
(UTC+02:00)

ISS - Pass Details

Date: 19 May 2019
Orbit: 407 x 410 km, 51.6° (Epoch: 21 May)

Event Time Altitude Azimuth Distance (km) Brightness Sun altitude
Rises 23:36:52 0° 250° (WSW) 2,330 0.1 -15.3°
Reaches altitude 10° 23:38:57 10° 248° (WSW) 1,471 -1.0 -15.5°
Maximum altitude 23:42:14 70° 165° (SSE) 438 -4.0 -15.7°
Drops below altitude 10° 23:45:32 10° 81° (E) 1,476 -1.1 -15.9°
Sets 23:47:37 0° 79° (E) 2,339 -0.1 -16.0°
